BREEZE-M R/B (45987 NORAD) Tracking and Keplerian Element Data

This shows tracking and keplerian element data for the satellite.

Feedback or suggestion? Click here.




ElementValue
Catalog45987
NameBREEZE-M R/B
Epoch Orbit28
Epoch Day241.03843615
Epoch Year2020
RAAN277.2051
Inclination0.8293
Eccentricity0.4666869
Argument of Perigee183.6764
Mean Anonmoly313.2903
Mean Motion1.03582498
Decay Rate-2.22E-06
L11 45987U 20053C 20241.03843615 -.00000222 00000-0 00000-0 0 9999
L22 45987 0.8293 277.2051 4666869 183.6764 313.2903 1.03582498 282

Live tracking and technical data element details for BREEZE-M R/B (NORAD 45987). BREEZE-M R/B can be tracked NOW for your location showing map with azimuth and elevation plus other details from your city location.

Track the satellite on the map from your city or location and see movement details for azimuth, elevation, latitude, longitude, range, height, and movement on the map or in text.







IsCatalogInMostPopularTable: catalog: 45987, numindb: 20
Update: records affected: 1



GetName: 45987 BREEZE-M R/B

Hit Count: updated at: Tue, 01 Dec 2020 21:10:24 GMT